Jackson, MI

6:40 AM EST on December 13, 2017 (GMT -0500)
Jackson County-Reynolds

Weather History for KJXN - November, 2011

Change the Weather History Date:

Saturday, November 5, 2011

  Actual Average Record
Temperature  
Mean Temperature 41 °F 44 °F  
Max Temperature 54 °F 53 °F 77 °F (1978)
Min Temperature 27 °F 35 °F 17 °F (1991)
Degree Days  
Heating Degree Days 24 21  
Month to date heating degree days 102  
Since 1 July heating degree days 750  
Cooling Degree Days 0 0  
Month to date cooling degree days 0  
Year to date cooling degree days 592  
Moisture  
Dew Point 28 °F    
Average Humidity 66    
Maximum Humidity 100    
Minimum Humidity 32    
Precipitation  
Precipitation 0.00 in 0.09 in 1.64 in (1990)
Month to date precipitation 0.00 0.44  
Year to date precipitation 27.47  
Sea Level Pressure  
Sea Level Pressure 30.29 in    
Wind  
Wind Speed 4 mph (SE)    
Max Wind Speed 16 mph    
Max Gust Speed 20 mph    
Visibility 9 miles    
Events      
T = Trace of Precipitation, MM = Missing Value Source: NWS Daily Summary

Daily Weather History Graph

Daily Weather History Graph

Search for Another Location

Airport or City:

Trip Planner

Search our weather history database for the weather conditions in past years. The results will help you decide how hot, cold, wet, or windy it might be!

Date:

Astronomy

Nov. 05, 2011 Rise Set
Actual Time 8:15 AM EDT 6:26 PM EDT
Civil Twilight 7:46 AM EDT 6:56 PM EDT
Nautical Twilight 7:12 AM EDT 7:29 PM EDT
Astronomical Twilight 6:40 AM EDT 8:02 PM EDT
Moon 3:48 PM EDT (11/5) 3:19 AM EDT (11/5)
Length of Visible Light 11h 09m
Length of Day
10h 11m
Waxing Gibbous, 78% of the Moon is Illuminated
Nov 5
Waxing Gibbous
Nov 10
Full
Nov 18
Last Quarter
Nov 25
New
Dec 2
First Quarter

Hourly Weather History & Observations

Time (EDT) Temp. Windchill Dew Point Humidity Pressure Visibility Wind Dir Wind Speed Gust Speed Precip Events Conditions
12:56 AM 32.0 °F 28.7 °F 30.0 °F 92% 30.36 in 9.0 mi ENE 3.5 mph - N/A   Clear
1:56 AM 30.0 °F - 28.0 °F 92% 30.36 in 10.0 mi Calm Calm - N/A   Clear
2:56 AM 28.4 °F 24.6 °F 26.6 °F 93% 30.33 in 10.0 mi ESE 3.5 mph - N/A   Clear
4:56 AM 30.0 °F 25.2 °F 28.9 °F 96% 30.33 in 9.0 mi SE 4.6 mph - N/A   Clear
5:56 AM 30.0 °F - 28.0 °F 92% 30.34 in 8.0 mi Calm Calm - N/A   Clear
6:56 AM 28.4 °F - 26.6 °F 93% 30.32 in 7.0 mi Calm Calm - N/A   Partly Cloudy
7:56 AM 30.0 °F - 28.0 °F 92% 30.35 in 7.0 mi Calm Calm - N/A   Clear
8:56 AM 28.9 °F - 28.0 °F 96% 30.37 in 7.0 mi Calm Calm - N/A   Clear
9:56 AM 37.9 °F 32.7 °F 32.0 °F 79% 30.37 in 10.0 mi SSE 6.9 mph - N/A   Clear
12:56 PM 50.0 °F - 26.1 °F 39% 30.33 in 10.0 mi South 11.5 mph - N/A   Clear
1:56 PM 51.1 °F - 26.1 °F 38% 30.30 in 10.0 mi South 8.1 mph - N/A   Clear
2:56 PM 53.1 °F - 26.1 °F 35% 30.28 in 10.0 mi SSE 10.4 mph - N/A   Clear
3:56 PM 53.1 °F - 25.0 °F 34% 30.26 in 10.0 mi South 10.4 mph - N/A   Clear
4:56 PM 53.1 °F - 25.0 °F 34% 30.25 in 10.0 mi SSE 10.4 mph - N/A   Clear
5:56 PM 50.0 °F - 26.1 °F 39% 30.24 in 10.0 mi SSE 8.1 mph - N/A   Clear
6:56 PM 44.1 °F 40.8 °F 26.1 °F 49% 30.23 in 10.0 mi SE 5.8 mph - N/A   Clear
7:56 PM 41.0 °F 36.4 °F 26.1 °F 55% 30.23 in 9.0 mi SE 6.9 mph - N/A   Clear
8:56 PM 39.9 °F 35.1 °F 30.9 °F 70% 30.23 in 10.0 mi SE 6.9 mph - N/A   Clear
9:56 PM 37.9 °F 33.5 °F 32.0 °F 79% 30.22 in 10.0 mi SE 5.8 mph - N/A   Clear
10:56 PM 37.9 °F 32.1 °F 34.0 °F 86% 30.21 in 10.0 mi SE 8.1 mph - N/A   Clear
11:56 PM 37.0 °F 32.4 °F 33.1 °F 86% 30.21 in 9.0 mi SSE 5.8 mph - N/A   Clear